When you browse on this site, cookies collect data to enhance your experience and personalize the content and advertising you see.
Visit our Privacy Policy to learn more. By continuing to use the site, you agree to this use of cookies and data.
  • In Lithuania
  • List of Countries
  • For 7 days
  • Water Temperature
  • Weather Map
  • Weather Widgets
  • user-avatar
    Login

    Hourly Weather Bolshoe Vyzhlyatnikovo

    Today, 19 August, Monday

    Time Temperature Precipitation Wind Pressure Humidity
    00:00 +14°C° 0 mm 1 mps 735 mmHg 99%
    01:00 +14°C° 0 mm 2 mps 735 mmHg 99%
    02:00 +14°C° 0 mm 2 mps 736 mmHg 99%
    03:00 +14°C° 0 mm 2 mps 736 mmHg 98%
    04:00 +14°C° 0 mm 2 mps 736 mmHg 98%
    05:00 +14°C° 0 mm 1 mps 737 mmHg 98%
    06:00 +15°C° 0 mm 2 mps 737 mmHg 97%
    07:00 +15°C° 0 mm 2 mps 737 mmHg 95%
    08:00 +15°C° 0 mm 2 mps 738 mmHg 94%
    09:00 +17°C° 0 mm 2 mps 738 mmHg 84%
    10:00 +19°C° 0 mm 2 mps 738 mmHg 74%
    11:00 +21°C° 0 mm 2 mps 738 mmHg 64%
    12:00 +23°C° 0 mm 2 mps 738 mmHg 62%
    13:00 +24°C° 0 mm 3 mps 738 mmHg 59%
    14:00 +25°C° 0 mm 3 mps 739 mmHg 56%
    15:00 +25°C° 0 mm 2 mps 739 mmHg 61%
    16:00 +25°C° 0 mm 2 mps 739 mmHg 65%
    17:00 +24°C° 0 mm 2 mps 739 mmHg 70%
    18:00 +23°C° 0 mm 2 mps 739 mmHg 76%
    19:00 +20°C° 0 mm 2 mps 739 mmHg 83%
    20:00 +18°C° 0 mm 2 mps 739 mmHg 90%
    21:00 +18°C° 0 mm 2 mps 739 mmHg 92%
    22:00 +17°C° 0 mm 2 mps 739 mmHg 94%
    23:00 +17°C° 0 mm 2 mps 739 mmHg 96%

    Tomorrow, 20 August, Tuesday

    Time Temperature Precipitation Wind Pressure Humidity
    00:00 +17°C° 0.1 mm 2 mps 739 mmHg 96%
    01:00 +17°C° 0.1 mm 2 mps 739 mmHg 97%
    02:00 +17°C° 0.1 mm 2 mps 739 mmHg 98%
    03:00 +17°C° 0 mm 2 mps 740 mmHg 98%
    04:00 +17°C° 0 mm 2 mps 740 mmHg 98%
    05:00 +17°C° 0 mm 2 mps 740 mmHg 98%
    06:00 +18°C° 0.3 mm 2 mps 741 mmHg 97%
    07:00 +20°C° 0.3 mm 1 mps 741 mmHg 96%
    08:00 +21°C° 0.3 mm 1 mps 741 mmHg 95%
    09:00 +22°C° 0 mm 1 mps 741 mmHg 92%
    10:00 +22°C° 0 mm 1 mps 741 mmHg 90%
    11:00 +21°C° 0 mm 0 mps 742 mmHg 87%
    12:00 +23°C° 0.3 mm 1 mps 742 mmHg 87%
    13:00 +23°C° 0.3 mm 1 mps 742 mmHg 86%
    14:00 +23°C° 0.3 mm 1 mps 742 mmHg 86%
    15:00 +23°C° 0.5 mm 1 mps 742 mmHg 87%
    16:00 +23°C° 0.5 mm 1 mps 742 mmHg 88%
    17:00 +23°C° 0.5 mm 1 mps 742 mmHg 89%
    18:00 +22°C° 0.1 mm 1 mps 742 mmHg 92%
    19:00 +20°C° 0.1 mm 1 mps 743 mmHg 94%
    20:00 +19°C° 0.1 mm 1 mps 743 mmHg 96%
    21:00 +18°C° 0 mm 1 mps 743 mmHg 97%
    22:00 +18°C° 0 mm 1 mps 743 mmHg 97%
    23:00 +16°C° 0 mm 1 mps 743 mmHg 97%

    Day after tomorrow, 21 August, Wednesday

    Time Temperature Precipitation Wind Pressure Humidity
    00:00 +16°C° 0 mm 1 mps 743 mmHg 97%
    01:00 +15°C° 0 mm 1 mps 744 mmHg 97%
    02:00 +15°C° 0 mm 1 mps 744 mmHg 97%
    03:00 +15°C° 0 mm 1 mps 744 mmHg 97%
    04:00 +15°C° 0 mm 1 mps 744 mmHg 97%
    05:00 +15°C° 0 mm 1 mps 744 mmHg 97%
    06:00 +16°C° 0 mm 1 mps 744 mmHg 95%
    07:00 +18°C° 0 mm 1 mps 744 mmHg 93%
    08:00 +18°C° 0 mm 2 mps 744 mmHg 91%
    09:00 +20°C° 0 mm 2 mps 744 mmHg 86%
    10:00 +21°C° 0 mm 2 mps 744 mmHg 81%
    11:00 +23°C° 0 mm 2 mps 744 mmHg 77%
    12:00 +24°C° 0.5 mm 2 mps 743 mmHg 79%
    13:00 +24°C° 0.5 mm 2 mps 743 mmHg 82%
    14:00 +24°C° 0.5 mm 3 mps 742 mmHg 85%
    15:00 +22°C° 1.5 mm 3 mps 742 mmHg 87%
    16:00 +21°C° 1.5 mm 3 mps 741 mmHg 90%
    17:00 +21°C° 1.5 mm 3 mps 741 mmHg 92%
    18:00 +21°C° 0.6 mm 3 mps 740 mmHg 93%
    19:00 +20°C° 0.6 mm 2 mps 740 mmHg 95%
    20:00 +20°C° 0.6 mm 2 mps 740 mmHg 96%
    21:00 +20°C° 0.3 mm 2 mps 740 mmHg 96%
    22:00 +19°C° 0.3 mm 3 mps 740 mmHg 96%
    23:00 +19°C° 0.3 mm 3 mps 740 mmHg 96%

    22 August, Thursday

    Time Temperature Precipitation Wind Pressure Humidity
    00:00 +19°C° 0.9 mm 3 mps 740 mmHg 96%
    01:00 +19°C° 0.9 mm 3 mps 740 mmHg 97%
    02:00 +18°C° 0.9 mm 3 mps 741 mmHg 97%
    03:00 +17°C° 0.3 mm 3 mps 741 mmHg 97%
    04:00 +16°C° 0.3 mm 3 mps 741 mmHg 97%
    05:00 +14°C° 0.3 mm 3 mps 741 mmHg 97%
    06:00 +14°C° 0 mm 3 mps 742 mmHg 95%
    07:00 +14°C° 0 mm 3 mps 742 mmHg 93%
    08:00 +14°C° 0 mm 3 mps 743 mmHg 92%
    09:00 +16°C° 0 mm 3 mps 743 mmHg 84%
    10:00 +17°C° 0 mm 3 mps 743 mmHg 76%
    11:00 +18°C° 0 mm 3 mps 744 mmHg 69%
    12:00 +19°C° 0 mm 2 mps 744 mmHg 65%
    13:00 +20°C° 0 mm 2 mps 744 mmHg 61%
    14:00 +21°C° 0 mm 2 mps 744 mmHg 57%
    15:00 +21°C° 0 mm 2 mps 744 mmHg 60%
    16:00 +21°C° 0 mm 2 mps 744 mmHg 64%
    17:00 +20°C° 0 mm 2 mps 744 mmHg 67%
    18:00 +18°C° 0 mm 2 mps 744 mmHg 72%
    19:00 +16°C° 0 mm 2 mps 744 mmHg 77%
    20:00 +14°C° 0 mm 1 mps 744 mmHg 81%
    21:00 +14°C° 0 mm 1 mps 744 mmHg 83%
    22:00 +13°C° 0 mm 1 mps 744 mmHg 84%
    23:00 +12°C° 0 mm 1 mps 744 mmHg 85%

    23 August, Friday

    Time Temperature Precipitation Wind Pressure Humidity
    00:00 +11°C° 0 mm 1 mps 744 mmHg 87%
    01:00 +11°C° 0 mm 1 mps 744 mmHg 89%
    02:00 +11°C° 0 mm 1 mps 744 mmHg 91%
    03:00 +11°C° 0 mm 1 mps 744 mmHg 92%
    04:00 +11°C° 0 mm 1 mps 744 mmHg 92%
    05:00 +9°C° 0 mm 0 mps 744 mmHg 93%
    06:00 +12°C° 0 mm 0 mps 744 mmHg 86%
    07:00 +15°C° 0 mm 1 mps 744 mmHg 78%
    08:00 +18°C° 0 mm 1 mps 745 mmHg 71%
    09:00 +19°C° 0.1 mm 1 mps 745 mmHg 67%
    10:00 +20°C° 0.1 mm 1 mps 744 mmHg 64%
    11:00 +21°C° 0.1 mm 1 mps 744 mmHg 60%
    12:00 +20°C° 0.3 mm 2 mps 744 mmHg 62%
    13:00 +20°C° 0.3 mm 2 mps 744 mmHg 64%
    14:00 +20°C° 0.3 mm 2 mps 744 mmHg 67%
    15:00 +19°C° 0.5 mm 2 mps 744 mmHg 72%
    16:00 +18°C° 0.5 mm 2 mps 744 mmHg 78%
    17:00 +18°C° 0.5 mm 1 mps 743 mmHg 84%
    18:00 +16°C° 0.1 mm 1 mps 743 mmHg 85%
    19:00 +14°C° 0.1 mm 1 mps 744 mmHg 87%
    20:00 +13°C° 0.1 mm 1 mps 744 mmHg 89%
    21:00 +12°C° 0 mm 1 mps 744 mmHg 90%
    22:00 +11°C° 0 mm 1 mps 744 mmHg 92%
    23:00 +11°C° 0 mm 1 mps 744 mmHg 93%

    24 August, Saturday

    Time Temperature Precipitation Wind Pressure Humidity
    00:00 +10°C° 0 mm 1 mps 744 mmHg 94%
    01:00 +10°C° 0 mm 1 mps 744 mmHg 95%
    02:00 +9°C° 0 mm 2 mps 744 mmHg 96%
    03:00 +9°C° 0 mm 2 mps 744 mmHg 96%
    04:00 +8°C° 0 mm 2 mps 744 mmHg 97%
    05:00 +8°C° 0 mm 2 mps 745 mmHg 97%
    06:00 +10°C° 0 mm 2 mps 745 mmHg 93%
    07:00 +12°C° 0 mm 2 mps 745 mmHg 89%
    08:00 +14°C° 0 mm 2 mps 745 mmHg 85%
    09:00 +16°C° 0 mm 2 mps 745 mmHg 76%
    10:00 +17°C° 0 mm 2 mps 746 mmHg 66%
    11:00 +19°C° 0 mm 2 mps 746 mmHg 56%
    12:00 +19°C° 0 mm 2 mps 746 mmHg 54%
    13:00 +20°C° 0 mm 2 mps 746 mmHg 52%
    14:00 +20°C° 0 mm 2 mps 745 mmHg 50%
    15:00 +20°C° 0 mm 2 mps 745 mmHg 56%
    16:00 +20°C° 0 mm 2 mps 745 mmHg 61%
    17:00 +20°C° 0 mm 1 mps 745 mmHg 66%
    18:00 +18°C° 0 mm 1 mps 745 mmHg 73%
    19:00 +15°C° 0 mm 1 mps 745 mmHg 79%
    20:00 +13°C° 0 mm 1 mps 745 mmHg 85%
    21:00 +13°C° 0 mm 1 mps 745 mmHg 88%
    22:00 +12°C° 0 mm 1 mps 745 mmHg 90%
    23:00 +12°C° 0 mm 1 mps 746 mmHg 93%
    Show more